When you browse on this site, cookies collect data to enhance your experience and personalize the content and advertising you see.
Visit our Privacy Policy to learn more. By continuing to use the site, you agree to this use of cookies and data.
  • In Italy
  • List of Countries
  • For 7 days
  • Water Temperature
  • Satellite Maps
  • Weather Map
  • Weather Widgets
  • user-avatar
    Login

    Hourly Weather Shkoder

    Today, 24 June, Monday

    Time Temperature Precipitation Wind Pressure Humidity
    00:00 +22°C° 0.2 mm 1 mps 740 mmHg 81%
    01:00 +22°C° 0 mm 1 mps 740 mmHg 79%
    02:00 +22°C° 0.1 mm 1 mps 739 mmHg 79%
    03:00 +22°C° 0.1 mm 1 mps 739 mmHg 80%
    04:00 +21°C° 0.1 mm 1 mps 739 mmHg 81%
    05:00 +22°C° 0.1 mm 1 mps 739 mmHg 78%
    06:00 +23°C° 0.1 mm 1 mps 739 mmHg 75%
    07:00 +24°C° 0 mm 1 mps 739 mmHg 72%
    08:00 +25°C° 0.4 mm 1 mps 739 mmHg 68%
    09:00 +26°C° 0.4 mm 1 mps 739 mmHg 64%
    10:00 +27°C° 0.4 mm 1 mps 739 mmHg 61%
    11:00 +28°C° 0.3 mm 1 mps 739 mmHg 59%
    12:00 +28°C° 0.3 mm 1 mps 739 mmHg 57%
    13:00 +29°C° 0.3 mm 1 mps 740 mmHg 55%
    14:00 +29°C° 0.4 mm 1 mps 739 mmHg 55%
    15:00 +29°C° 0.4 mm 1 mps 739 mmHg 56%
    16:00 +29°C° 0.4 mm 1 mps 739 mmHg 56%
    17:00 +28°C° 0.2 mm 1 mps 739 mmHg 63%
    18:00 +26°C° 0.2 mm 1 mps 740 mmHg 69%
    19:00 +25°C° 0.2 mm 1 mps 740 mmHg 76%
    20:00 +24°C° 0 mm 1 mps 740 mmHg 76%
    21:00 +23°C° 0 mm 2 mps 740 mmHg 77%
    22:00 +21°C° 0 mm 2 mps 740 mmHg 78%
    23:00 +21°C° 0 mm 2 mps 741 mmHg 77%

    Tomorrow, 25 June, Tuesday

    Time Temperature Precipitation Wind Pressure Humidity
    00:00 +21°C° 0 mm 3 mps 741 mmHg 77%
    01:00 +20°C° 0 mm 3 mps 741 mmHg 76%
    02:00 +20°C° 0 mm 3 mps 741 mmHg 77%
    03:00 +20°C° 0 mm 3 mps 741 mmHg 78%
    04:00 +20°C° 0 mm 3 mps 740 mmHg 78%
    05:00 +21°C° 0 mm 3 mps 741 mmHg 76%
    06:00 +24°C° 0 mm 3 mps 741 mmHg 74%
    07:00 +25°C° 0 mm 3 mps 742 mmHg 72%
    08:00 +27°C° 0 mm 3 mps 742 mmHg 68%
    09:00 +28°C° 0 mm 3 mps 742 mmHg 64%
    10:00 +29°C° 0 mm 3 mps 742 mmHg 61%
    11:00 +30°C° 0 mm 3 mps 742 mmHg 58%
    12:00 +31°C° 0 mm 3 mps 742 mmHg 56%
    13:00 +33°C° 0 mm 3 mps 742 mmHg 53%
    14:00 +33°C° 0.2 mm 3 mps 742 mmHg 54%
    15:00 +31°C° 0.2 mm 2 mps 742 mmHg 54%
    16:00 +31°C° 0.2 mm 2 mps 742 mmHg 55%
    17:00 +30°C° 0.1 mm 2 mps 742 mmHg 60%
    18:00 +28°C° 0.1 mm 2 mps 742 mmHg 66%
    19:00 +27°C° 0.1 mm 2 mps 743 mmHg 72%
    20:00 +26°C° 0 mm 2 mps 743 mmHg 72%
    21:00 +26°C° 0 mm 3 mps 743 mmHg 72%
    22:00 +25°C° 0 mm 3 mps 743 mmHg 73%
    23:00 +25°C° 0 mm 3 mps 743 mmHg 72%

    Day after tomorrow, 26 June, Wednesday

    Time Temperature Precipitation Wind Pressure Humidity
    00:00 +24°C° 0 mm 3 mps 743 mmHg 72%
    01:00 +24°C° 0 mm 3 mps 743 mmHg 71%
    02:00 +22°C° 0 mm 3 mps 743 mmHg 72%
    03:00 +22°C° 0 mm 3 mps 743 mmHg 72%
    04:00 +22°C° 0 mm 3 mps 743 mmHg 72%
    05:00 +24°C° 0 mm 3 mps 743 mmHg 70%
    06:00 +25°C° 0 mm 3 mps 743 mmHg 69%
    07:00 +27°C° 0 mm 3 mps 744 mmHg 67%
    08:00 +28°C° 0 mm 3 mps 743 mmHg 63%
    09:00 +29°C° 0 mm 3 mps 743 mmHg 60%
    10:00 +30°C° 0 mm 3 mps 743 mmHg 57%
    11:00 +32°C° 0 mm 4 mps 743 mmHg 55%
    12:00 +33°C° 0 mm 4 mps 743 mmHg 53%
    13:00 +33°C° 0 mm 4 mps 743 mmHg 51%
    14:00 +33°C° 0 mm 4 mps 743 mmHg 52%
    15:00 +33°C° 0 mm 4 mps 742 mmHg 52%
    16:00 +33°C° 0 mm 4 mps 742 mmHg 53%
    17:00 +30°C° 0 mm 4 mps 742 mmHg 59%
    18:00 +29°C° 0 mm 3 mps 742 mmHg 65%
    19:00 +27°C° 0 mm 3 mps 742 mmHg 70%
    20:00 +26°C° 0 mm 3 mps 742 mmHg 71%
    21:00 +26°C° 0 mm 3 mps 742 mmHg 71%
    22:00 +25°C° 0 mm 3 mps 743 mmHg 72%
    23:00 +24°C° 0 mm 3 mps 743 mmHg 73%

    27 June, Thursday

    Time Temperature Precipitation Wind Pressure Humidity
    00:00 +24°C° 0 mm 3 mps 742 mmHg 75%
    01:00 +22°C° 0 mm 3 mps 742 mmHg 76%
    02:00 +22°C° 0 mm 3 mps 742 mmHg 75%
    03:00 +21°C° 0 mm 3 mps 742 mmHg 74%
    04:00 +21°C° 0 mm 3 mps 742 mmHg 73%
    05:00 +22°C° 0 mm 3 mps 742 mmHg 70%
    06:00 +25°C° 0 mm 3 mps 742 mmHg 68%
    07:00 +26°C° 0 mm 2 mps 742 mmHg 65%
    08:00 +28°C° 0 mm 2 mps 741 mmHg 62%
    09:00 +29°C° 0 mm 3 mps 741 mmHg 58%
    10:00 +31°C° 0 mm 3 mps 741 mmHg 54%
    11:00 +31°C° 0 mm 2 mps 741 mmHg 52%
    12:00 +32°C° 0 mm 2 mps 741 mmHg 51%
    13:00 +34°C° 0 mm 2 mps 741 mmHg 49%
    14:00 +34°C° 0 mm 2 mps 740 mmHg 49%
    15:00 +34°C° 0 mm 2 mps 740 mmHg 50%
    16:00 +34°C° 0 mm 2 mps 739 mmHg 50%
    17:00 +31°C° 0 mm 2 mps 739 mmHg 56%
    18:00 +30°C° 0 mm 1 mps 739 mmHg 61%
    19:00 +28°C° 0 mm 1 mps 739 mmHg 67%
    20:00 +27°C° 0 mm 1 mps 739 mmHg 68%
    21:00 +26°C° 0 mm 2 mps 739 mmHg 69%
    22:00 +25°C° 0 mm 2 mps 739 mmHg 70%
    23:00 +25°C° 0 mm 2 mps 739 mmHg 70%

    28 June, Friday

    Time Temperature Precipitation Wind Pressure Humidity
    00:00 +24°C° 0 mm 2 mps 739 mmHg 71%
    01:00 +24°C° 0 mm 2 mps 739 mmHg 71%
    02:00 +24°C° 0 mm 2 mps 739 mmHg 72%
    03:00 +23°C° 0 mm 2 mps 738 mmHg 72%
    04:00 +23°C° 0 mm 2 mps 738 mmHg 72%
    05:00 +25°C° 0 mm 2 mps 738 mmHg 70%
    06:00 +26°C° 0 mm 2 mps 738 mmHg 68%
    07:00 +27°C° 0 mm 2 mps 738 mmHg 65%
    08:00 +29°C° 0 mm 2 mps 738 mmHg 61%
    09:00 +30°C° 0 mm 3 mps 738 mmHg 57%
    10:00 +31°C° 0 mm 3 mps 738 mmHg 52%
    11:00 +31°C° 0 mm 3 mps 738 mmHg 51%
    12:00 +33°C° 0 mm 3 mps 738 mmHg 50%
    13:00 +33°C° 0 mm 3 mps 737 mmHg 48%
    14:00 +33°C° 0 mm 3 mps 737 mmHg 49%
    15:00 +33°C° 0 mm 3 mps 737 mmHg 50%
    16:00 +32°C° 0 mm 4 mps 737 mmHg 51%
    17:00 +30°C° 0 mm 4 mps 737 mmHg 55%
    18:00 +28°C° 0 mm 4 mps 737 mmHg 60%
    19:00 +26°C° 0 mm 4 mps 737 mmHg 65%
    20:00 +25°C° 0 mm 4 mps 738 mmHg 66%
    21:00 +23°C° 0 mm 4 mps 738 mmHg 68%
    22:00 +22°C° 0 mm 4 mps 738 mmHg 70%
    23:00 +22°C° 0 mm 4 mps 738 mmHg 71%

    29 June, Saturday

    Time Temperature Precipitation Wind Pressure Humidity
    00:00 +21°C° 0 mm 4 mps 738 mmHg 72%
    01:00 +20°C° 0 mm 4 mps 738 mmHg 73%
    02:00 +20°C° 0 mm 4 mps 738 mmHg 73%
    03:00 +19°C° 0 mm 4 mps 738 mmHg 73%
    04:00 +19°C° 0 mm 4 mps 737 mmHg 74%
    05:00 +20°C° 0 mm 4 mps 737 mmHg 70%
    06:00 +21°C° 0 mm 4 mps 738 mmHg 67%
    07:00 +23°C° 0 mm 4 mps 738 mmHg 63%
    08:00 +25°C° 0 mm 3 mps 738 mmHg 59%
    09:00 +26°C° 0 mm 3 mps 738 mmHg 55%
    10:00 +28°C° 0 mm 3 mps 738 mmHg 51%
    11:00 +28°C° 0 mm 3 mps 738 mmHg 50%
    12:00 +29°C° 0 mm 3 mps 738 mmHg 50%
    13:00 +30°C° 0 mm 3 mps 738 mmHg 49%
    14:00 +30°C° 0 mm 3 mps 738 mmHg 50%
    15:00 +30°C° 0 mm 3 mps 738 mmHg 51%
    16:00 +30°C° 0 mm 3 mps 737 mmHg 52%
    17:00 +28°C° 0 mm 3 mps 738 mmHg 57%
    18:00 +27°C° 0 mm 3 mps 738 mmHg 62%
    19:00 +25°C° 0 mm 3 mps 738 mmHg 68%
    20:00 +23°C° 0 mm 4 mps 738 mmHg 68%
    21:00 +22°C° 0 mm 4 mps 739 mmHg 69%
    22:00 +21°C° 0 mm 5 mps 739 mmHg 69%
    23:00 +20°C° 0 mm 5 mps 739 mmHg 69%
    Show more